Showing default

TEN-KOH, 43677

Orbit data source: Space-Track

TEN-KOH, 43677 is a payload satellite owned by Kyutech (JP) in SSO that was launched on Mon, 29 Oct 2018 UTC via an H-IIA 202 launch vehicle from the Tanegashima Space Center (TNSTA). Payloads include a variety of satellites, spacecraft, and rockets equipped with specific instruments for various scientific and technological missions. These include communications satellites like Starlink; space stations such as the ISS; scientific satellites like the Hubble; Earth observation satellites from companies like Planet Labs, Umbra, and HawkEye 360; GPS; miniature CubeSats for education and research; and military/defense satellites.

Loading next visibility...
TEN-KOH details
Identifier
43677, 2018-084G
Orbit
SSO
Last TLE update1 day ago
Origin
Flag of JPKyutech (JP / JPN)
ManufacturerKyutech
MissionOperational Amateur Technology
Bus & MotorSHINEN-2, Unknown motor
Mass22.3 kg wet, 22.3 kg dry
Launch date (UTC)
2018-10-29 (6 years ago)
Launch vehicle
H-IIA 202
Launch site
Tanegashima Space Center (TNSTA)
Object type
Payload
Rocket body
Debris
Shape & HBRPolyhedral Cyl, 0.5 m
Radar Cross Section0.295 m², Medium (>0.1 m² and < 1m²)

Expand to show TLE details & history

TLE from 1 day ago
0 TEN-KOH
1 43677U 18084G   24347.91919921  .00004688  00000-0  39536-3 0  9994
2 43677  98.0777 147.2733 0014267 143.0234 217.1974 14.98605421333461
Epoch: 2024-12-12T22:03Z
Definitive object data (Epoch: 2024-12-12T22:03:38.811Z)
Latitude-0.00001°
Longitude94.26896°
Altitude582.15 km
Speed7.565 km/s
True Right ascension09h 49m 05s
True Declination0° 00' 00"
Sunlit
Object was in daylight at TLE epoch
Visualization TLE readout
Latitude-36.82305°
Longitude101.64179°
Altitude595.082 km
Speed7.556 km/s
Apparent Right ascension12h 25m 42s
Apparent Declination-43° 31' 03"
Sunlit
Object is in daylight
Visualization observer readout
Local Sidereal Time02:53:24
Azimuth109.718° ESE
Elevation-62.432°
Doppler factor1
Orbital elements
Apogee altitude578.139 km
Perigee altitude558.318 km
Semi-major axis6,946.365 km
Eccentricity0.0014267
Inclination98.0777°
RAAN147.2733°
Arg. of periapsis143.0234°
True anomaly217.0987°
Mean anomaly217.1974°
Eccentric anomaly217.14804°
Mean motion3.74892 °/min
BSTAR0.00039536
Orbital period96.03 mins
Loading maneuver chart data...

TEN-KOH Visibility forecast

Observer location: undefined°, undefined

Span
Click to sort rows by Start time (UTC) header in descending order
Start Az.
Max El. time (UTC)
Max El. Az.
Max El.
End time (UTC)
End Az.
6 mins2024-12-14 11:03:31.830Z182.73° SSW2024-12-14 11:05:31.830Z241.816° WSW42.025°2024-12-14 11:09:31.830Z340.755° N
6 mins2024-12-15 00:18:31.830Z345.904° N2024-12-15 00:20:31.830Z305.248° NW29.497°2024-12-15 00:24:31.830Z222.786° SW
|